Location: Okie-Tex Star Party
(36.8978°N, 102.9520°W)
Time: 16:54:51
(UTC-05:00)

Oscar 16 - Visible Passes

Search period start: 26 May 2018 00:00
Search period end: 05 June 2018 00:00
Orbit: 775 x 790 km, 98.6° (Epoch: 25 May)

Date Brightness Start Highest point End Pass type
(mag) Time Alt. Az. Time Alt. Az. Time Alt. Az.
26 May 10.5 03:54:22 10° NNE 03:59:34 89° WNW 04:00:20 66° SSW visible
26 May 12.9 05:37:54 10° WNW 05:38:03 10° WNW 05:38:12 10° WNW visible
27 May 11.3 03:22:53 10° NNE 03:27:50 44° E 03:28:17 43° ESE visible
27 May 12.2 05:03:04 10° NNW 05:06:48 20° WNW 05:08:51 16° W visible
28 May 12.4 02:52:03 10° NE 02:55:58 22° E 02:56:14 22° E visible
28 May 11.3 04:30:35 10° N 04:35:23 40° WNW 04:36:48 33° WSW visible
29 May 10.5 03:58:38 10° N 04:03:50 81° WNW 04:04:46 60° SSW visible
30 May 11.1 03:27:06 10° NNE 03:32:07 49° E 03:32:42 46° ESE visible
30 May 12.3 05:07:30 10° NNW 05:11:01 19° WNW 05:13:17 14° W visible
31 May 12.2 02:56:09 10° NE 03:00:16 24° E 03:00:39 23° ESE visible
31 May 11.4 04:34:55 10° N 04:39:37 36° WNW 04:41:13 29° WSW visible
01 Jun 13.1 02:26:55 10° ENE 02:28:16 11° E 02:28:36 11° E visible
01 Jun 10.6 04:02:54 10° N 04:08:04 74° WNW 04:09:10 55° SW visible
02 Jun 11.0 03:31:19 10° NNE 03:36:23 54° E 03:37:06 49° SE visible
02 Jun 12.4 05:11:58 10° NNW 05:15:13 17° WNW 05:17:41 13° W visible
03 Jun 12.1 03:00:15 10° NE 03:04:33 26° E 03:05:03 25° ESE visible
03 Jun 11.6 04:39:15 10° N 04:43:50 33° WNW 04:45:37 26° WSW visible
04 Jun 13.0 02:30:32 10° ENE 02:32:34 12° E 02:32:59 12° E visible
04 Jun 10.6 04:07:11 10° N 04:12:19 68° WNW 04:13:33 49° SW visible
